AirNav   Pilot Hours Calculator
 
 700 users online  

FD71 O'Brien Airpark East/West
Branford, Florida, USA

GOING TO BRANFORD?


FAA INFORMATION EFFECTIVE 15 AUGUST 2019

Location

FAA Identifier: FD71
Lat/Long: 30-02-54.0000N 082-59-02.0000W
30-02.900000N 082-59.033333W
30.0483333,-82.9838889
(estimated)
Elevation: 55 ft. / 17 m (estimated)
Variation: 02W (1985)
From city: 6 miles NW of BRANFORD, FL
Time zone: UTC -4 (UTC -5 during Standard Time)
Zip code: 32071

Airport Operations

Airport use: Private use. Permission required prior to landing
Activation date: 07/1986
Control tower: no
ARTCC: JACKSONVILLE CENTER
FSS: GAINESVILLE FLIGHT SERVICE STATION
Attendance: UNATNDD
Wind indicator: yes
Segmented circle: no

Airport Communications

WX AWOS-3 at 24J (15 nm N): 118.225 (386-362-1731)

Nearby radio navigation aids

VOR radial/distance  VOR name  Freq  Var
CTYr009/27.2CROSS CITY VORTAC112.0002W
TAYr222/35.3TAYLOR VORTAC112.9003W

 
NDB name  Hdg/Dist  Freq  Var  ID
LAKE CITY252/22.620403WLCQ .-.. -.-. --.-

Airport Services

Runway Information

Runway 18/36

Dimensions: 2400 x 100 ft. / 732 x 30 m
Surface: turf, in good condition
RUNWAY 18  RUNWAY 36
Traffic pattern: leftleft

Airport Ownership and Management from official FAA records

Ownership: Privately-owned
Owner: O'BRIEN AIRPARK ASSOCIATION
PO BOX 315
O'BRIEN, FL 32071
Phone (386) 935-2042
Manager: CLYDE PENDERFRAFF
22249 117 TH DRIVE
O'BRIEN, FL 32071
Phone (386) 935-2042

Airport Operational Statistics

Aircraft based on the field: 16
Single engine airplanes: 16
    

Additional Remarks

CTN:LOW FLYING MILITARY ACFT IN VICINITY OF ARPT.
FOR CD CTC JACKSONVILLE ARTCC AT 904-845-1592.

Instrument Procedures

There are no published instrument procedures at FD71.

Some nearby airports with instrument procedures:

24J - Suwannee County Airport (15 nm N)
KLCQ - Lake City Gateway Airport (23 nm E)
KCTY - Cross City Airport (26 nm S)
40J - Perry-Foley Airport (31 nm W)
KGNV - Gainesville Regional Airport (43 nm SE)
 
Loc | Ops | Rwys | IFR | FBO | Links
Com | Nav | Svcs | Stats | Notes
Area around FD71 (O'Brien Airpark East/West)
 
Road maps at: MapQuest Bing Google
 
Aerial photo
WARNING: Photo may not be current or correct
Aerial photo of FD71 (O'Brien Airpark East/West)
Do you have a better or more recent aerial photo of O'Brien Airpark East/West that you would like to share? If so, please send us your photo.

 
Sectional chart

 
Airport distance calculator
Flying to O'Brien Airpark East/West? Find the distance to fly.

From to FD71

Sunrise and sunset
Times for 25-Aug-2019
 Local
(UTC-4)
 Zulu
(UTC)
Morning civil twilight06:4110:41
Sunrise07:0611:06
Sunset20:0200:02
Evening civil twilight20:2700:27

Current date and time
Zulu (UTC)  25-Aug-2019 12:17:50
Local (UTC-4)  25-Aug-2019 08:17:50
 
METAR
K24J 
15nm N 
251155Z AUTO 00000KT 1/2SM BR OVC003 24/24 A2999 RMK A01
KLCQ 
23nm E 
251155Z AUTO 03005KT 5SM BR OVC003 23/23 A2999 RMK AO2 LTG DSNT E
K40J 
30nm W 
251155Z AUTO 05003KT 1/2SM FG OVC003 25/25 A2999 RMK AO2 LTG DSNT E 70005 T02500245 10250 20245
KCTY 
31nm S 
251155Z AUTO 05005KT 10SM CLR 25/24 A2998 RMK AO2 T02530244 10268 20249
TAF
KGNV 
42nm SE 
251120Z 2512/2612 02005KT P6SM SCT003 SCT015 TEMPO 2512/2514 BKN015 FM251700 06007KT P6SM VCTS BKN025CB FM252300 04006KT P6SM SCT025 BKN250 FM260300 05003KT P6SM SCT030 BKN250
KVLD 
46nm N 
250932Z 2510/2606 VRB03KT 5SM BR BKN003 FM251400 VRB04KT P6SM BKN015 FM251600 07006KT P6SM BKN040 OVC100 FM252100 06005KT P6SM VCTS BKN040CB FM252300 07005KT 5SM -TSRA BKN040CB
NOTAMs
Click for the latest NOTAMs
NOTAMs are issued by the DoD/FAA and will open in a separate window not controlled by AirNav.

 

 
 

Would you like to see your business listed on this page?

 If your business provides an interesting product or service to pilots, flight crews, aircraft, or users of the O'Brien Airpark East/West, you should consider listing it here.  To start the listing process, click on the button below
 
Add a business
 

Other Pages about O'Brien Airpark East/West

Update a link
 
Copyright © AirNav, LLC. All rights reserved. Privacy Policy  Contact